STARLINK-11267, 60994

Orbit data source: Space-Track

STARLINK-11267, 60994 is a payload satellite owned by SpaceX/Seattle (US) in LEO that was launched on Thu, 05 Sep 2024 UTC via an FALCON 9 launch vehicle from the Air Force Eastern Test Range (AFETR). Payloads include a variety of satellites, spacecraft, and rockets equipped with specific instruments for various scientific and technological missions. These include communications satellites like Starlink; space stations such as the ISS; scientific satellites like the Hubble; Earth observation satellites from companies like Planet Labs, Umbra, and HawkEye 360; GPS; miniature CubeSats for education and research; and military/defense satellites.

Loading next visibility...
STARLINK-11267 details
Identifier
60994, 2024-158E
Orbit
LEO
Last TLE update22 hours ago
Origin
Flag of USSpaceX/Seattle (US)
ManufacturerSpaceX/Seattle
MissionOperational spacecraft
Bus & MotorSTARLINK V2M, Unknown motor
Mass730 kg wet, ~700 kg dry
Launch date (UTC)
2024-09-05 (4 months ago)
Launch vehicle
FALCON 9
Launch site
Air Force Eastern Test Range (AFETR)
Object type
Payload
Rocket body
Debris
Shape & HBRUnknown
Radar Cross SectionLarge (>1 m²)

Expand to show TLE details & history

TLE from 22 hours ago
0 STARLINK-11267
1 60994U 24158E   24355.61566534  .00002207  00000-0  23078-4 0  9998
2 60994  53.1596 310.6899 0001432  91.4847 268.6335 15.69706606 17847
Epoch: 2024-12-20T14:46Z
Definitive object data (Epoch: 2024-12-20T14:46:33.485Z)
Latitude-0.00001°
Longitude-0.62826°
Altitude360.675 km
Speed7.694 km/s
True Right ascension20h 42m 45s
True Declination0° 00' 00"
Sunlit
Object was in daylight at TLE epoch
Visualization TLE readout
Latitude-20.4894°
Longitude-169.03911°
Altitude365.795 km
Speed7.69 km/s
Apparent Right ascension06h 05m 51s
Apparent Declination-58° 18' 47"
Sunlit
Object is in full shadow
Visualization observer readout
Local Sidereal Time12:04:22
Azimuth218.735° SW
Elevation-32.917°
Doppler factor1
Orbital elements
Apogee altitude360.962 km
Perigee altitude359.032 km
Semi-major axis6,738.134 km
Eccentricity0.0001432
Inclination53.1596°
RAAN310.6899°
Arg. of periapsis91.4847°
True anomaly268.6171°
Mean anomaly268.6335°
Eccentric anomaly268.6253°
Mean motion3.92404 °/min
BSTAR0.000023078
Orbital period91.74 mins
Loading maneuver chart data...
Loading historical data...
Loading historical data...
Loading historical data...
Loading historical data...
Loading historical data...
Loading historical data...
Loading historical data...

STARLINK-11267 Visibility forecast

Observer location: undefined°, undefined

Span
Click to sort rows by Start time (UTC) header in descending order
Start Az.
Max El. time (UTC)
Max El. Az.
Max El.
End time (UTC)
End Az.
4 mins2024-12-21 23:01:28.853Z191.262° SSW2024-12-21 23:03:28.853Z148.918° SSE23.121°2024-12-21 23:05:28.853Z85.937° E
4 mins2024-12-22 07:02:28.853Z274.928° WNW2024-12-22 07:03:28.853Z240.943° WSW28.568°2024-12-22 07:06:28.853Z158.796° S
|